| time (UTC) | temp F | wind direction | speed knots | gust knots | rain 1hr in | rain 24hr in | rain mn in | humidity % | barometer mb |
| 20260902060825 | 60 | 204 | 0.0 | 0.0 | 0.00 | 0.01 | 0.01 | 84 | 1011.6 |
| 20260902060318 | 60 | 201 | 0.0 | 0.0 | 0.00 | 0.01 | 0.01 | 84 | 1011.8 |
| 20260902055830 | 60 | 201 | 0.0 | 0.9 | 0.00 | 0.01 | 0.01 | 84 | 1011.7 |
| 20260902055323 | 60 | 201 | 0.0 | 0.9 | 0.00 | 0.01 | 0.01 | 84 | 1011.8 |
| 20260902054816 | 60 | 202 | 0.0 | 4.3 | 0.00 | 0.01 | 0.01 | 83 | 1012.0 |
| 20260902054317 | 60 | 202 | 0.0 | 4.3 | 0.00 | 0.01 | 0.01 | 83 | 1012.1 |
| 20260902053831 | 60 | 216 | 0.0 | 0.9 | 0.00 | 0.01 | 0.01 | 83 | 1012.2 |
| 20260902053345 | 60 | 240 | 0.0 | 0.0 | 0.00 | 0.01 | 0.01 | 82 | 1012.2 |
| 20260902052837 | 61 | 239 | 0.0 | 0.9 | 0.00 | 0.01 | 0.01 | 82 | 1012.2 |
| 20260902052327 | 61 | 239 | 0.0 | 0.9 | 0.00 | 0.01 | 0.01 | 82 | 1012.0 |
| 20260902051843 | 61 | 239 | 0.0 | 0.0 | 0.00 | 0.01 | 0.01 | 82 | 1012.0 |
| 20260902051335 | 61 | 239 | 0.0 | 0.0 | 0.00 | 0.01 | 0.01 | 82 | 1012.0 |
| 20260902050827 | 61 | 239 | 0.0 | 0.0 | 0.00 | 0.01 | 0.01 | 82 | 1012.0 |
| 20260902050320 | 61 | 239 | 0.0 | 0.0 | 0.00 | 0.01 | 0.01 | 82 | 1012.0 |
| 20260902045853 | 61 | 239 | 0.0 | 0.0 | 0.00 | 0.01 | 0.01 | 82 | 1012.0 |
| 20260902045325 | 61 | 239 | 0.0 | 1.7 | 0.00 | 0.01 | 0.01 | 82 | 1012.0 |
| 20260902044822 | 61 | 225 | 0.0 | 0.0 | 0.00 | 0.01 | 0.01 | 82 | 1012.0 |
| 20260902044335 | 61 | 225 | 0.0 | 0.9 | 0.00 | 0.01 | 0.01 | 81 | 1012.1 |
| 20260902043828 | 61 | 224 | 0.0 | 0.9 | 0.00 | 0.01 | 0.01 | 81 | 1011.9 |
| 20260902043320 | 61 | 224 | 0.0 | 0.0 | 0.00 | 0.01 | 0.01 | 81 | 1012.0 |
| 20260902042833 | 61 | 224 | 0.0 | 0.0 | 0.00 | 0.01 | 0.01 | 81 | 1011.9 |
| 20260902042346 | 61 | 224 | 0.0 | 0.0 | 0.00 | 0.01 | 0.01 | 81 | 1011.9 |
| 20260902041838 | 61 | 224 | 0.0 | 0.0 | 0.00 | 0.01 | 0.01 | 81 | 1011.9 |
| 20260902041331 | 61 | 224 | 0.0 | 0.0 | 0.00 | 0.01 | 0.01 | 81 | 1012.0 |
| 20260902040825 | 61 | 224 | 0.0 | 0.0 | 0.00 | 0.01 | 0.01 | 80 | 1012.0 |
| 20260902040317 | 61 | 224 | 0.0 | 0.0 | 0.00 | 0.01 | 0.01 | 80 | 1012.0 |
| 20260902035833 | 61 | 224 | 0.0 | 0.0 | 0.00 | 0.01 | 0.01 | 80 | 1011.9 |
| 20260902035326 | 61 | 224 | 0.0 | 0.0 | 0.00 | 0.01 | 0.01 | 80 | 1011.8 |
| 20260902034820 | 61 | 224 | 0.0 | 0.0 | 0.00 | 0.01 | 0.01 | 79 | 1011.8 |
| 20260902034333 | 61 | 224 | 0.0 | 0.0 | 0.00 | 0.01 | 0.01 | 78 | 1011.8 |
| 20260902033827 | 62 | 224 | 0.0 | 0.0 | 0.00 | 0.01 | 0.01 | 78 | 1011.8 |
| 20260902033320 | 62 | 224 | 0.0 | 0.0 | 0.00 | 0.01 | 0.01 | 78 | 1011.8 |
| 20260902032834 | 62 | 224 | 0.0 | 0.0 | 0.00 | 0.01 | 0.01 | 77 | 1011.8 |
| 20260902032347 | 62 | 224 | 0.0 | 0.0 | 0.00 | 0.01 | 0.01 | 77 | 1011.8 |
| 20260902031839 | 62 | 224 | 0.0 | 0.0 | 0.00 | 0.01 | 0.01 | 77 | 1011.9 |
| 20260902031316 | 62 | 224 | 0.0 | 0.0 | 0.00 | 0.01 | 0.01 | 77 | 1012.0 |
| 20260902030830 | 62 | 224 | 0.0 | 0.0 | 0.00 | 0.01 | 0.01 | 76 | 1011.9 |
| 20260902030322 | 63 | 224 | 0.0 | 0.0 | 0.00 | 0.01 | 0.01 | 76 | 1011.9 |
| 20260902025834 | 63 | 224 | 0.0 | 0.0 | 0.00 | 0.01 | 0.01 | 76 | 1012.0 |
| 20260902025327 | 63 | 224 | 0.0 | 0.9 | 0.00 | 0.01 | 0.01 | 76 | 1012.0 |
| 20260902024819 | 63 | 224 | 0.0 | 0.9 | 0.00 | 0.01 | 0.01 | 76 | 1012.0 |
| 20260902024312 | 63 | 224 | 0.0 | 0.9 | 0.00 | 0.01 | 0.01 | 75 | 1012.0 |
| 20260902023828 | 63 | 224 | 0.0 | 0.0 | 0.00 | 0.01 | 0.01 | 75 | 1012.0 |
| 20260902023324 | 63 | 224 | 0.0 | 0.0 | 0.00 | 0.01 | 0.01 | 74 | 1012.0 |
| 20260902022837 | 63 | 224 | 0.0 | 0.0 | 0.00 | 0.01 | 0.01 | 74 | 1012.0 |
| 20260902022331 | 63 | 224 | 0.0 | 0.0 | 0.00 | 0.01 | 0.01 | 74 | 1012.0 |
| 20260902021827 | 63 | 224 | 0.0 | 0.0 | 0.00 | 0.01 | 0.01 | 74 | 1012.0 |
| 20260902021320 | 63 | 224 | 0.0 | 0.0 | 0.00 | 0.01 | 0.01 | 74 | 1011.9 |
| 20260902020833 | 63 | 224 | 0.0 | 0.0 | 0.00 | 0.01 | 0.01 | 74 | 1012.0 |
| 20260902020326 | 64 | 224 | 0.0 | 0.0 | 0.00 | 0.01 | 0.01 | 74 | 1011.9 |
| 20260902015819 | 64 | 224 | 0.0 | 0.9 | 0.00 | 0.01 | 0.01 | 73 | 1011.9 |
| 20260902015316 | 64 | 224 | 0.0 | 0.9 | 0.00 | 0.01 | 0.01 | 73 | 1011.8 |
| 20260902014829 | 64 | 224 | 0.0 | 0.0 | 0.00 | 0.01 | 0.01 | 73 | 1011.8 |
| 20260902014322 | 64 | 224 | 0.0 | 0.0 | 0.00 | 0.01 | 0.01 | 72 | 1011.8 |
| 20260902013855 | 64 | 224 | 0.0 | 0.0 | 0.00 | 0.01 | 0.01 | 72 | 1011.8 |
| 20260902013327 | 64 | 224 | 0.0 | 0.0 | 0.00 | 0.01 | 0.01 | 72 | 1011.8 |
| 20260902012818 | 64 | 196 | 0.0 | 0.0 | 0.00 | 0.01 | 0.01 | 71 | 1011.8 |
| 20260902012331 | 64 | 196 | 0.0 | 0.0 | 0.00 | 0.01 | 0.01 | 71 | 1011.7 |
| 20260902011827 | 64 | 196 | 0.0 | 0.0 | 0.00 | 0.01 | 0.01 | 72 | 1011.7 |
| 20260902011319 | 64 | 196 | 0.0 | 0.0 | 0.00 | 0.01 | 0.01 | 72 | 1011.6 |
| 20260902010818 | 64 | 196 | 0.0 | 0.0 | 0.00 | 0.01 | 0.01 | 72 | 1011.6 |
| 20260902010330 | 64 | 196 | 0.0 | 0.0 | 0.00 | 0.01 | 0.01 | 73 | 1011.6 |
| 20260902005824 | 64 | 196 | 0.0 | 0.0 | 0.00 | 0.01 | 0.01 | 73 | 1011.6 |
| 20260902005316 | 64 | 196 | 0.0 | 0.0 | 0.00 | 0.01 | 0.01 | 73 | 1011.6 |
| 20260902004829 | 64 | 196 | 0.0 | 0.0 | 0.00 | 0.01 | 0.01 | 74 | 1011.6 |
| 20260902004327 | 63 | 196 | 0.0 | 0.0 | 0.00 | 0.01 | 0.01 | 73 | 1011.7 |
| 20260902003819 | 63 | 196 | 0.0 | 0.0 | 0.00 | 0.01 | 0.01 | 74 | 1011.6 |
| 20260902003331 | 63 | 196 | 0.0 | 0.0 | 0.00 | 0.01 | 0.01 | 74 | 1011.7 |
| 20260902002828 | 63 | 196 | 0.0 | 0.0 | 0.00 | 0.01 | 0.01 | 75 | 1011.7 |
| 20260902002341 | 63 | 196 | 0.0 | 0.0 | 0.00 | 0.01 | 0.01 | 74 | 1011.7 |
| 20260902001853 | 64 | 196 | 0.0 | 0.0 | 0.00 | 0.01 | 0.01 | 75 | 1011.8 |
| 20260902001325 | 64 | 196 | 0.0 | 0.0 | 0.00 | 0.01 | 0.01 | 75 | 1011.9 |
| 20260902000817 | 64 | 196 | 0.0 | 0.0 | 0.00 | 0.01 | 0.01 | 75 | 1011.8 |
| 20260902000330 | 64 | 196 | 0.0 | 0.0 | 0.00 | 0.01 | 0.01 | 75 | 1011.7 |
| 20260901235823 | 64 | 196 | 0.0 | 0.0 | 0.00 | 0.01 | 0.01 | 74 | 1011.8 |
| 20260901235316 | 64 | 196 | 0.0 | 0.0 | 0.00 | 0.01 | 0.01 | 73 | 1011.7 |
| 20260901234832 | 64 | 196 | 0.0 | 0.0 | 0.00 | 0.01 | 0.01 | 73 | 1011.7 |
| 20260901234329 | 64 | 196 | 0.0 | 0.0 | 0.00 | 0.01 | 0.01 | 74 | 1011.7 |
| 20260901233823 | 64 | 196 | 0.0 | 0.0 | 0.00 | 0.01 | 0.01 | 74 | 1011.8 |
| 20260901233355 | 64 | 196 | 0.0 | 0.0 | 0.00 | 0.01 | 0.01 | 74 | 1011.8 |
| 20260901232827 | 64 | 196 | 0.0 | 0.0 | 0.00 | 0.01 | 0.01 | 74 | 1011.7 |
| 20260901232320 | 64 | 196 | 0.0 | 0.0 | 0.00 | 0.01 | 0.01 | 73 | 1011.6 |
| 20260901231836 | 65 | 196 | 0.0 | 0.0 | 0.00 | 0.01 | 0.01 | 72 | 1011.7 |
| 20260901231332 | 65 | 196 | 0.0 | 0.9 | 0.00 | 0.01 | 0.01 | 71 | 1011.6 |
| 20260901230825 | 65 | 196 | 0.0 | 0.9 | 0.00 | 0.01 | 0.01 | 70 | 1011.7 |
| 20260901230318 | 65 | 196 | 0.0 | 0.0 | 0.00 | 0.01 | 0.01 | 70 | 1011.7 |
| 20260901225851 | 65 | 196 | 0.0 | 0.0 | 0.00 | 0.01 | 0.01 | 70 | 1011.6 |
| 20260901225344 | 65 | 196 | 0.0 | 0.0 | 0.00 | 0.01 | 0.01 | 70 | 1011.6 |
| 20260901224837 | 65 | 196 | 0.0 | 0.0 | 0.00 | 0.01 | 0.01 | 70 | 1011.6 |
| 20260901224334 | 65 | 196 | 0.0 | 0.0 | 0.00 | 0.01 | 0.01 | 70 | 1011.6 |
| 20260901223827 | 65 | 196 | 0.0 | 0.0 | 0.00 | 0.01 | 0.01 | 70 | 1011.6 |
| 20260901223321 | 65 | 196 | 0.0 | 0.0 | 0.00 | 0.01 | 0.01 | 69 | 1011.6 |
| 20260901222835 | 66 | 196 | 0.0 | 0.0 | 0.00 | 0.01 | 0.01 | 69 | 1011.6 |
| 20260901222349 | 66 | 196 | 0.0 | 0.0 | 0.00 | 0.01 | 0.01 | 69 | 1011.6 |
| 20260901221822 | 66 | 192 | 0.0 | 0.9 | 0.00 | 0.01 | 0.01 | 69 | 1011.5 |
| 20260901221334 | 66 | 191 | 0.0 | 0.9 | 0.00 | 0.01 | 0.01 | 68 | 1011.4 |
| 20260901220849 | 66 | 191 | 0.0 | 0.0 | 0.00 | 0.01 | 0.01 | 68 | 1011.6 |
| 20260901220321 | 66 | 191 | 0.0 | 0.0 | 0.00 | 0.01 | 0.01 | 68 | 1011.5 |
| 20260901215841 | 66 | 191 | 0.0 | 0.0 | 0.00 | 0.01 | 0.01 | 68 | 1011.4 |
| 20260901215353 | 66 | 191 | 0.0 | 0.9 | 0.00 | 0.01 | 0.01 | 68 | 1011.5 |
| 20260901214845 | 66 | 191 | 0.0 | 0.9 | 0.00 | 0.01 | 0.01 | 68 | 1011.3 |
| 20260901214318 | 66 | 191 | 0.0 | 0.0 | 0.00 | 0.01 | 0.01 | 68 | 1011.3 |
| 20260901213831 | 66 | 191 | 0.0 | 0.0 | 0.00 | 0.01 | 0.01 | 68 | 1011.3 |
| 20260901213348 | 66 | 191 | 0.0 | 0.0 | 0.00 | 0.01 | 0.01 | 68 | 1011.2 |
| 20260901212822 | 66 | 191 | 0.0 | 0.0 | 0.00 | 0.01 | 0.01 | 67 | 1011.3 |
| 20260901212316 | 66 | 191 | 0.0 | 3.5 | 0.00 | 0.01 | 0.01 | 67 | 1011.3 |
| 20260901211828 | 66 | 195 | 0.0 | 1.7 | 0.00 | 0.01 | 0.01 | 66 | 1011.3 |
| 20260901211322 | 66 | 195 | 0.0 | 1.7 | 0.00 | 0.01 | 0.01 | 67 | 1011.3 |
| 20260901210818 | 66 | 195 | 0.0 | 1.7 | 0.00 | 0.01 | 0.01 | 67 | 1011.3 |
| 20260901210332 | 66 | 180 | 0.0 | 0.0 | 0.00 | 0.01 | 0.01 | 68 | 1011.3 |
| 20260901205825 | 66 | 180 | 0.0 | 1.7 | 0.00 | 0.01 | 0.01 | 68 | 1011.2 |
| 20260901205321 | 66 | 180 | 0.0 | 3.5 | 0.00 | 0.01 | 0.01 | 66 | 1011.2 |
| 20260901204854 | 66 | 175 | 0.0 | 3.5 | 0.00 | 0.01 | 0.01 | 66 | 1011.2 |
| 20260901204327 | 66 | 209 | 0.0 | 0.9 | 0.00 | 0.01 | 0.01 | 66 | 1011.3 |
| 20260901203820 | 66 | 209 | 0.0 | 2.6 | 0.00 | 0.01 | 0.01 | 65 | 1011.3 |
| 20260901203334 | 66 | 209 | 0.0 | 3.5 | 0.00 | 0.01 | 0.01 | 65 | 1011.3 |
| 20260901202827 | 66 | 190 | 0.0 | 3.5 | 0.00 | 0.01 | 0.01 | 65 | 1011.4 |
| 20260901202324 | 66 | 160 | 0.0 | 1.7 | 0.00 | 0.01 | 0.01 | 68 | 1011.4 |
| 20260901201818 | 66 | 125 | 0.0 | 3.5 | 0.00 | 0.01 | 0.01 | 67 | 1011.5 |
| 20260901201332 | 66 | 223 | 0.9 | 3.5 | 0.00 | 0.01 | 0.01 | 68 | 1011.4 |
| 20260901200825 | 66 | 274 | 0.0 | 0.0 | 0.00 | 0.01 | 0.01 | 69 | 1011.6 |
| 20260901200319 | 66 | 274 | 0.0 | 0.9 | 0.00 | 0.01 | 0.01 | 68 | 1011.5 |
| 20260901195832 | 66 | 274 | 0.0 | 0.9 | 0.00 | 0.01 | 0.01 | 68 | 1011.6 |
| 20260901195346 | 66 | 278 | 0.0 | 1.7 | 0.00 | 0.01 | 0.01 | 67 | 1011.6 |
| 20260901194818 | 66 | 278 | 0.0 | 1.7 | 0.00 | 0.01 | 0.01 | 69 | 1011.6 |
| 20260901194316 | 66 | 218 | 0.0 | 2.6 | 0.00 | 0.01 | 0.01 | 69 | 1011.6 |
| 20260901193829 | 66 | 224 | 0.0 | 2.6 | 0.00 | 0.01 | 0.01 | 69 | 1011.6 |
| 20260901193323 | 66 | 227 | 0.0 | 0.9 | 0.00 | 0.01 | 0.01 | 69 | 1011.6 |
| 20260901192816 | 66 | 200 | 0.0 | 2.6 | 0.00 | 0.01 | 0.01 | 69 | 1011.6 |
| 20260901192327 | 66 | 200 | 0.0 | 2.6 | 0.00 | 0.01 | 0.01 | 69 | 1011.7 |
| 20260901191823 | 66 | 202 | 0.0 | 0.0 | 0.00 | 0.01 | 0.01 | 71 | 1011.7 |
| 20260901191317 | 66 | 202 | 0.0 | 0.0 | 0.00 | 0.01 | 0.01 | 71 | 1011.9 |
| 20260901190830 | 65 | 202 | 0.0 | 0.0 | 0.00 | 0.01 | 0.01 | 72 | 1012.0 |
| 20260901190330 | 65 | 202 | 0.0 | 4.3 | 0.00 | 0.01 | 0.01 | 72 | 1012.0 |
| 20260901185823 | 65 | 202 | 0.0 | 4.3 | 0.00 | 0.01 | 0.01 | 72 | 1012.0 |
| 20260901185317 | 65 | 247 | 0.0 | 0.9 | 0.00 | 0.01 | 0.01 | 73 | 1012.0 |
| 20260901184830 | 65 | 218 | 0.0 | 0.0 | 0.01 | 0.01 | 0.01 | 73 | 1012.0 |
| 20260901184322 | 65 | 218 | 0.0 | 0.0 | 0.01 | 0.01 | 0.01 | 73 | 1012.0 |
| 20260901183816 | 65 | 218 | 0.0 | 1.7 | 0.01 | 0.01 | 0.01 | 73 | 1012.0 |
| 20260901183332 | 65 | 218 | 0.0 | 1.7 | 0.01 | 0.01 | 0.01 | 74 | 1012.0 |
| 20260901182825 | 64 | 218 | 0.0 | 1.7 | 0.01 | 0.01 | 0.01 | 74 | 1012.1 |
| 20260901182324 | 64 | 218 | 0.0 | 1.7 | 0.01 | 0.01 | 0.01 | 75 | 1012.1 |
| 20260901181820 | 64 | 217 | 0.0 | 0.9 | 0.01 | 0.01 | 0.01 | 75 | 1012.1 |
| 20260901181353 | 64 | 217 | 0.0 | 0.0 | 0.01 | 0.01 | 0.01 | 76 | 1012.0 |
| 20260901180826 | 63 | 217 | 0.0 | 0.0 | 0.01 | 0.01 | 0.01 | 77 | 1012.0 |
| 20260901180320 | 63 | 217 | 0.0 | 0.0 | 0.01 | 0.01 | 0.01 | 78 | 1012.0 |
| 20260901175834 | 63 | 217 | 0.0 | 0.0 | 0.01 | 0.01 | 0.01 | 79 | 1012.0 |
| 20260901175327 | 62 | 217 | 0.0 | 0.0 | 0.01 | 0.01 | 0.01 | 80 | 1012.1 |
| 20260901174824 | 62 | 217 | 0.0 | 0.9 | 0.00 | 0.00 | 0.00 | 80 | 1012.2 |
| 20260901174322 | 62 | 217 | 0.0 | 0.9 | 0.00 | 0.00 | 0.00 | 80 | 1012.1 |
| 20260901173835 | 62 | 217 | 0.0 | 0.0 | 0.00 | 0.00 | 0.00 | 80 | 1012.1 |
| 20260901173329 | 62 | 217 | 0.0 | 0.9 | 0.00 | 0.00 | 0.00 | 80 | 1012.1 |
| 20260901172825 | 63 | 217 | 0.0 | 0.0 | 0.00 | 0.00 | 0.00 | 80 | 1012.1 |
| 20260901172318 | 63 | 217 | 0.0 | 0.0 | 0.00 | 0.00 | 0.00 | 80 | 1012.0 |
| 20260901171835 | 63 | 216 | 0.0 | 0.0 | 0.00 | 0.00 | 0.00 | 80 | 1011.9 |
| 20260901171329 | 63 | 214 | 0.0 | 0.0 | 0.00 | 0.00 | 0.00 | 80 | 1011.9 |
| 20260901170823 | 63 | 214 | 0.0 | 0.0 | 0.00 | 0.00 | 0.00 | 81 | 1011.8 |
| 20260901170320 | 62 | 214 | 0.0 | 0.0 | 0.00 | 0.00 | 0.00 | 82 | 1011.9 |
| 20260901165834 | 62 | 211 | 0.0 | 2.6 | 0.00 | 0.00 | 0.00 | 83 | 1011.9 |
| 20260901165347 | 62 | 210 | 0.0 | 2.6 | 0.00 | 0.00 | 0.00 | 83 | 1011.9 |
| 20260901164818 | 62 | 192 | 0.0 | 0.9 | 0.00 | 0.00 | 0.00 | 84 | 1011.8 |
| 20260901164331 | 61 | 192 | 0.0 | 0.9 | 0.00 | 0.00 | 0.00 | 84 | 1011.9 |
| 20260901163824 | 61 | 192 | 0.0 | 0.9 | 0.00 | 0.00 | 0.00 | 84 | 1011.9 |
| 20260901163317 | 61 | 192 | 0.0 | 0.0 | 0.00 | 0.00 | 0.00 | 85 | 1012.0 |
| 20260901162828 | 61 | 192 | 0.0 | 0.9 | 0.00 | 0.00 | 0.00 | 86 | 1012.0 |
| 20260901162321 | 61 | 195 | 0.0 | 0.0 | 0.00 | 0.00 | 0.00 | 86 | 1012.0 |
| 20260901161820 | 60 | 195 | 0.0 | 0.0 | 0.00 | 0.00 | 0.00 | 87 | 1012.0 |
| 20260901161337 | 60 | 195 | 0.0 | 2.6 | 0.00 | 0.00 | 0.00 | 88 | 1012.0 |
| 20260901160833 | 60 | 195 | 0.0 | 2.6 | 0.00 | 0.00 | 0.00 | 88 | 1012.1 |
| 20260901160347 | 60 | 196 | 0.0 | 0.0 | 0.00 | 0.00 | 0.00 | 89 | 1012.1 |
| 20260901155840 | 59 | 196 | 0.0 | 0.0 | 0.00 | 0.00 | 0.00 | 89 | 1012.1 |
| 20260901155332 | 59 | 196 | 0.0 | 0.0 | 0.00 | 0.00 | 0.00 | 89 | 1012.1 |
| 20260901154827 | 59 | 196 | 0.0 | 0.0 | 0.00 | 0.00 | 0.00 | 89 | 1012.1 |
| 20260901154319 | 59 | 196 | 0.0 | 0.0 | 0.00 | 0.00 | 0.00 | 89 | 1012.1 |
| 20260901153835 | 59 | 196 | 0.0 | 0.0 | 0.00 | 0.00 | 0.00 | 89 | 1012.1 |
| 20260901153332 | 59 | 196 | 0.0 | 0.0 | 0.00 | 0.00 | 0.00 | 89 | 1012.1 |
| 20260901152824 | 59 | 196 | 0.0 | 0.0 | 0.00 | 0.00 | 0.00 | 89 | 1012.1 |
| 20260901152317 | 58 | 196 | 0.0 | 0.0 | 0.00 | 0.00 | 0.00 | 89 | 1012.1 |
| 20260901151833 | 58 | 196 | 0.0 | 0.0 | 0.00 | 0.00 | 0.00 | 89 | 1012.1 |
| 20260901151326 | 58 | 196 | 0.0 | 0.0 | 0.00 | 0.00 | 0.00 | 89 | 1012.1 |
| 20260901150822 | 58 | 196 | 0.0 | 0.0 | 0.00 | 0.00 | 0.00 | 89 | 1012.1 |
| 20260901150333 | 58 | 196 | 0.0 | 0.0 | 0.00 | 0.00 | 0.00 | 90 | 1012.0 |
| 20260901145825 | 58 | 196 | 0.0 | 0.0 | 0.00 | 0.00 | 0.00 | 90 | 1012.0 |
| 20260901145322 | 57 | 196 | 0.0 | 0.0 | 0.00 | 0.00 | 0.00 | 90 | 1012.0 |
| 20260901144835 | 57 | 196 | 0.0 | 0.0 | 0.00 | 0.00 | 0.00 | 90 | 1012.0 |
| 20260901144328 | 57 | 196 | 0.0 | 0.0 | 0.00 | 0.00 | 0.00 | 90 | 1012.0 |
| 20260901143821 | 57 | 196 | 0.0 | 0.0 | 0.00 | 0.00 | 0.00 | 89 | 1012.0 |
| 20260901143334 | 56 | 196 | 0.0 | 0.0 | 0.00 | 0.00 | 0.00 | 89 | 1012.0 |
| 20260901142827 | 56 | 194 | 0.0 | 0.0 | 0.00 | 0.00 | 0.00 | 89 | 1012.0 |
| 20260901142318 | 56 | 194 | 0.0 | 0.0 | 0.00 | 0.00 | 0.00 | 89 | 1011.9 |
| 20260901141851 | 56 | 194 | 0.0 | 0.0 | 0.00 | 0.00 | 0.00 | 89 | 1011.8 |
| 20260901141346 | 56 | 194 | 0.0 | 0.0 | 0.00 | 0.00 | 0.00 | 89 | 1011.8 |
| 20260901140818 | 56 | 194 | 0.0 | 0.0 | 0.00 | 0.00 | 0.00 | 89 | 1011.8 |
| 20260901140339 | 56 | 194 | 0.0 | 0.0 | 0.00 | 0.00 | 0.00 | 90 | 1011.8 |
| 20260901135851 | 56 | 194 | 0.0 | 0.0 | 0.00 | 0.00 | 0.00 | 90 | 1011.7 |
| 20260901135323 | 55 | 194 | 0.0 | 0.0 | 0.00 | 0.00 | 0.00 | 89 | 1011.6 |
| 20260901134816 | 55 | 194 | 0.0 | 0.0 | 0.00 | 0.00 | 0.00 | 90 | 1011.6 |
| 20260901134329 | 55 | 194 | 0.0 | 0.0 | 0.00 | 0.00 | 0.00 | 90 | 1011.6 |
| 20260901133824 | 55 | 194 | 0.0 | 0.0 | 0.00 | 0.00 | 0.00 | 90 | 1011.6 |
| 20260901133340 | 55 | 194 | 0.0 | 0.0 | 0.00 | 0.00 | 0.00 | 89 | 1011.5 |
| 20260901132835 | 55 | 194 | 0.0 | 0.0 | 0.00 | 0.00 | 0.00 | 89 | 1011.6 |
| 20260901132327 | 55 | 194 | 0.0 | 0.0 | 0.00 | 0.00 | 0.00 | 89 | 1011.6 |
| 20260901131824 | 55 | 194 | 0.0 | 0.0 | 0.00 | 0.00 | 0.00 | 89 | 1011.6 |
| 20260901131337 | 55 | 194 | 0.0 | 0.0 | 0.00 | 0.00 | 0.00 | 89 | 1011.6 |
| 20260901130829 | 55 | 194 | 0.0 | 0.0 | 0.00 | 0.00 | 0.00 | 89 | 1011.6 |
| 20260901130320 | 55 | 194 | 0.0 | 0.0 | 0.00 | 0.00 | 0.00 | 90 | 1011.6 |
| 20260901125813 | 55 | 194 | 0.0 | 0.0 | 0.00 | 0.00 | 0.00 | 89 | 1011.6 |
| 20260901125349 | 55 | 194 | 0.0 | 0.0 | 0.00 | 0.00 | 0.00 | 89 | 1011.5 |
| 20260901124820 | 55 | 194 | 0.0 | 0.0 | 0.00 | 0.00 | 0.00 | 89 | 1011.5 |
| 20260901124333 | 55 | 194 | 0.0 | 0.0 | 0.00 | 0.00 | 0.00 | 89 | 1011.4 |
| 20260901123825 | 55 | 194 | 0.0 | 0.0 | 0.00 | 0.00 | 0.00 | 90 | 1011.4 |
| 20260901123339 | 55 | 194 | 0.0 | 0.0 | 0.00 | 0.00 | 0.00 | 89 | 1011.5 |
| 20260901122831 | 55 | 194 | 0.0 | 0.0 | 0.00 | 0.00 | 0.00 | 90 | 1011.5 |
| 20260901122327 | 55 | 194 | 0.0 | 0.0 | 0.00 | 0.00 | 0.00 | 90 | 1011.5 |
| 20260901121820 | 55 | 194 | 0.0 | 0.0 | 0.00 | 0.00 | 0.00 | 90 | 1011.6 |
| 20260901121333 | 55 | 194 | 0.0 | 0.0 | 0.00 | 0.00 | 0.00 | 90 | 1011.5 |
| 20260901120827 | 55 | 194 | 0.0 | 0.0 | 0.00 | 0.00 | 0.00 | 90 | 1011.4 |
| 20260901120320 | 54 | 194 | 0.0 | 0.0 | 0.00 | 0.00 | 0.00 | 90 | 1011.3 |
| 20260901115832 | 54 | 194 | 0.0 | 0.0 | 0.00 | 0.00 | 0.00 | 90 | 1011.4 |
| 20260901115326 | 54 | 194 | 0.0 | 0.0 | 0.00 | 0.00 | 0.00 | 90 | 1011.3 |
| 20260901114823 | 54 | 194 | 0.0 | 0.0 | 0.00 | 0.00 | 0.00 | 91 | 1011.2 |
| 20260901114320 | 54 | 194 | 0.0 | 0.0 | 0.00 | 0.00 | 0.00 | 90 | 1011.3 |
| 20260901113833 | 54 | 194 | 0.0 | 0.0 | 0.00 | 0.00 | 0.00 | 90 | 1011.2 |
| 20260901113328 | 54 | 194 | 0.0 | 0.0 | 0.00 | 0.00 | 0.00 | 90 | 1011.3 |
| 20260901112822 | 54 | 194 | 0.0 | 0.0 | 0.00 | 0.00 | 0.00 | 89 | 1011.3 |
| 20260901112335 | 54 | 194 | 0.0 | 0.0 | 0.00 | 0.00 | 0.00 | 89 | 1011.3 |
| 20260901111828 | 54 | 194 | 0.0 | 0.0 | 0.00 | 0.00 | 0.00 | 89 | 1011.2 |
| 20260901111321 | 54 | 194 | 0.0 | 0.0 | 0.00 | 0.00 | 0.00 | 90 | 1011.1 |
| 20260901110818 | 54 | 194 | 0.0 | 0.0 | 0.00 | 0.00 | 0.00 | 89 | 1011.1 |
| 20260901110331 | 54 | 194 | 0.0 | 0.0 | 0.00 | 0.00 | 0.00 | 90 | 1011.1 |
| 20260901105824 | 54 | 194 | 0.0 | 0.0 | 0.00 | 0.00 | 0.00 | 90 | 1011.1 |
| 20260901105317 | 54 | 194 | 0.0 | 0.0 | 0.00 | 0.00 | 0.00 | 90 | 1011.2 |
| 20260901104830 | 54 | 194 | 0.0 | 0.0 | 0.00 | 0.00 | 0.00 | 91 | 1011.1 |
| 20260901104323 | 54 | 194 | 0.0 | 0.0 | 0.00 | 0.00 | 0.00 | 91 | 1011.2 |
| 20260901103819 | 54 | 194 | 0.0 | 0.0 | 0.00 | 0.00 | 0.00 | 91 | 1011.0 |
| 20260901103332 | 54 | 194 | 0.0 | 0.0 | 0.00 | 0.00 | 0.00 | 91 | 1011.2 |
| 20260901102832 | 54 | 194 | 0.0 | 0.0 | 0.00 | 0.00 | 0.00 | 90 | 1011.2 |
| 20260901102325 | 54 | 194 | 0.0 | 0.0 | 0.00 | 0.00 | 0.00 | 90 | 1011.2 |
| 20260901101820 | 54 | 194 | 0.0 | 0.0 | 0.00 | 0.00 | 0.00 | 90 | 1011.1 |
| 20260901101333 | 54 | 194 | 0.0 | 0.0 | 0.00 | 0.00 | 0.00 | 89 | 1011.1 |
| 20260901100826 | 54 | 194 | 0.0 | 0.0 | 0.00 | 0.00 | 0.00 | 89 | 1011.1 |
| 20260901100339 | 54 | 194 | 0.0 | 0.0 | 0.00 | 0.00 | 0.00 | 89 | 1011.0 |
| 20260901095851 | 54 | 194 | 0.0 | 0.0 | 0.00 | 0.00 | 0.00 | 89 | 1011.0 |
| 20260901095326 | 54 | 194 | 0.0 | 0.0 | 0.00 | 0.00 | 0.00 | 89 | 1010.9 |
| 20260901094819 | 54 | 194 | 0.0 | 0.0 | 0.00 | 0.00 | 0.00 | 89 | 1010.9 |
| 20260901094316 | 55 | 194 | 0.0 | 0.0 | 0.00 | 0.00 | 0.00 | 89 | 1011.0 |
| 20260901093830 | 55 | 194 | 0.0 | 0.0 | 0.00 | 0.00 | 0.00 | 88 | 1011.0 |
| 20260901093323 | 55 | 194 | 0.0 | 0.0 | 0.00 | 0.00 | 0.00 | 88 | 1011.0 |
| 20260901092818 | 55 | 194 | 0.0 | 0.0 | 0.00 | 0.00 | 0.00 | 88 | 1011.1 |
| 20260901092332 | 55 | 194 | 0.0 | 0.0 | 0.00 | 0.00 | 0.00 | 88 | 1011.0 |
| 20260901091826 | 55 | 194 | 0.0 | 0.0 | 0.00 | 0.00 | 0.00 | 88 | 1011.1 |
| 20260901091340 | 55 | 194 | 0.0 | 0.0 | 0.00 | 0.00 | 0.00 | 88 | 1011.1 |
| 20260901090832 | 55 | 194 | 0.0 | 0.0 | 0.00 | 0.00 | 0.00 | 87 | 1011.1 |
| 20260901090326 | 55 | 194 | 0.0 | 0.0 | 0.00 | 0.00 | 0.00 | 87 | 1010.9 |
| 20260901085822 | 55 | 194 | 0.0 | 0.0 | 0.00 | 0.00 | 0.00 | 87 | 1010.8 |
| 20260901085319 | 55 | 194 | 0.0 | 0.0 | 0.00 | 0.00 | 0.00 | 87 | 1010.8 |
| 20260901084832 | 56 | 194 | 0.0 | 0.0 | 0.00 | 0.00 | 0.00 | 87 | 1010.7 |
| 20260901084329 | 56 | 194 | 0.0 | 0.0 | 0.00 | 0.00 | 0.00 | 87 | 1010.7 |
| 20260901083822 | 56 | 194 | 0.0 | 0.0 | 0.00 | 0.00 | 0.00 | 87 | 1010.7 |
| 20260901083315 | 56 | 194 | 0.0 | 0.0 | 0.00 | 0.00 | 0.00 | 86 | 1010.7 |
| 20260901082830 | 56 | 194 | 0.0 | 0.0 | 0.00 | 0.00 | 0.00 | 86 | 1010.6 |
| 20260901082323 | 56 | 194 | 0.0 | 0.0 | 0.00 | 0.00 | 0.00 | 85 | 1010.6 |
| 20260901081820 | 56 | 194 | 0.0 | 0.0 | 0.00 | 0.00 | 0.00 | 85 | 1010.7 |
| 20260901081332 | 57 | 194 | 0.0 | 0.0 | 0.00 | 0.00 | 0.00 | 85 | 1010.7 |
| 20260901080827 | 57 | 194 | 0.0 | 0.0 | 0.00 | 0.00 | 0.00 | 85 | 1010.7 |
| 20260901080321 | 57 | 194 | 0.0 | 0.0 | 0.00 | 0.00 | 0.00 | 85 | 1010.8 |
| 20260901075834 | 57 | 194 | 0.0 | 0.0 | 0.00 | 0.00 | 0.00 | 85 | 1010.7 |
| 20260901075327 | 57 | 194 | 0.0 | 0.0 | 0.00 | 0.00 | 0.00 | 85 | 1010.7 |
| 20260901074822 | 57 | 194 | 0.0 | 0.0 | 0.00 | 0.00 | 0.00 | 84 | 1010.7 |
| 20260901074320 | 57 | 194 | 0.0 | 0.0 | 0.00 | 0.00 | 0.00 | 84 | 1010.7 |
| 20260901073833 | 57 | 194 | 0.0 | 0.0 | 0.00 | 0.00 | 0.00 | 84 | 1010.6 |
| 20260901073325 | 57 | 194 | 0.0 | 0.0 | 0.00 | 0.00 | 0.00 | 84 | 1010.6 |
| 20260901072839 | 57 | 194 | 0.0 | 0.0 | 0.00 | 0.00 | 0.00 | 84 | 1010.5 |
| 20260901072331 | 57 | 194 | 0.0 | 0.0 | 0.00 | 0.00 | 0.00 | 84 | 1010.4 |
| 20260901071827 | 57 | 194 | 0.0 | 0.0 | 0.00 | 0.00 | 0.00 | 85 | 1010.3 |
| 20260901071320 | 57 | 194 | 0.0 | 0.0 | 0.00 | 0.00 | 0.00 | 84 | 1010.2 |
| 20260901070837 | 57 | 194 | 0.0 | 0.0 | 0.00 | 0.00 | 0.00 | 84 | 1010.3 |
| 20260901070332 | 58 | 194 | 0.0 | 0.0 | 0.00 | 0.00 | 0.00 | 83 | 1010.3 |
| 20260901065831 | 58 | 194 | 0.0 | 0.0 | 0.00 | 0.00 | 0.00 | 83 | 1010.3 |
| 20260901065328 | 58 | 194 | 0.0 | 0.0 | 0.00 | 0.00 | 0.00 | 82 | 1010.3 |
| 20260901064821 | 59 | 194 | 0.0 | 0.0 | 0.00 | 0.00 | 0.00 | 82 | 1010.2 |
| 20260901064334 | 59 | 194 | 0.0 | 0.0 | 0.00 | 0.00 | 0.00 | 82 | 1010.2 |
| 20260901063829 | 59 | 194 | 0.0 | 0.0 | 0.00 | 0.00 | 0.00 | 82 | 1010.2 |
| 20260901063321 | 59 | 194 | 0.0 | 0.0 | 0.00 | 0.00 | 0.00 | 81 | 1010.2 |
| 20260901062834 | 59 | 194 | 0.0 | 0.0 | 0.00 | 0.00 | 0.00 | 81 | 1010.2 |
| 20260901062327 | 60 | 194 | 0.0 | 0.0 | 0.00 | 0.00 | 0.00 | 81 | 1010.2 |
| 20260901061824 | 60 | 194 | 0.0 | 0.0 | 0.00 | 0.00 | 0.00 | 81 | 1010.1 |
| 20260901061336 | 60 | 194 | 0.0 | 0.0 | 0.00 | 0.00 | 0.00 | 81 | 1010.1 |